Elkins, WV

10:45 AM EDT on March 30, 2017 (GMT -0400)
Elkins-Randolph County

Weather History for KEKN - July, 2013

Change the Weather History Date:

Thursday, July 18, 2013

  Actual Average Record
Temperature  
Mean Temperature 79 °F 70 °F  
Max Temperature 91 °F 81 °F 91 °F (1942)
Min Temperature 66 °F 59 °F 46 °F (1924)
Degree Days  
Heating Degree Days 0 0  
Month to date heating degree days 0 8  
Since 1 June heating degree days 12 63  
Since 1 July heating degree days 0 8  
Cooling Degree Days 14 5  
Month to date cooling degree days 155 92  
Year to date cooling degree days 277 207  
Since 1 June cooling degree days 252 184  
Growing Degree Days 28 (Base 50)    
Moisture  
Dew Point 67 °F    
Average Humidity 75    
Maximum Humidity 100    
Minimum Humidity 50    
Precipitation  
Precipitation 0.20 in 0.17 in 2.22 in (1912)
Month to date precipitation 1.99 3.21  
Year to date precipitation 22.55 26.82  
Snow  
Snow 0.00 in - - ()
Month to date snowfall 0.0  
Since 1 September snowfall 77.5  
Snow Depth 0.00 in    
Sea Level Pressure  
Sea Level Pressure 30.20 in    
Wind  
Wind Speed 2 mph (NNW)    
Max Wind Speed 16 mph    
Max Gust Speed 22 mph    
Visibility 9 miles    
Events Rain    
T = Trace of Precipitation, MM = Missing Value Source: NWS Daily Summary

Daily Weather History Graph

Daily Weather History Graph

Search for Another Location

Airport or City:

Trip Planner

Search our weather history database for the weather conditions in past years. The results will help you decide how hot, cold, wet, or windy it might be!

Date:

Astronomy

Jul. 18, 2013 Rise Set
Actual Time 6:08 AM EDT 8:42 PM EDT
Civil Twilight 5:38 AM EDT 9:12 PM EDT
Nautical Twilight 4:59 AM EDT 9:51 PM EDT
Astronomical Twilight 4:16 AM EDT 10:33 PM EDT
Moon 4:37 PM EDT (7/18) 1:57 AM EDT (7/18)
Length of Visible Light 15h 34m
Length of Day
14h 33m
Waxing Gibbous, 77% of the Moon is Illuminated
Jul 18
Waxing Gibbous
Jul 22
Full
Jul 29
Last Quarter
Aug 6
New
Aug 14
First Quarter

Hourly Weather History & Observations

Time (EDT) Temp. Heat Index Dew Point Humidity Pressure Visibility Wind Dir Wind Speed Gust Speed Precip Events Conditions
12:51 AM 70.0 °F - 66.9 °F 90% 30.25 in 10.0 mi Calm Calm - N/A   Clear
1:51 AM 69.1 °F - 66.0 °F 90% 30.23 in 10.0 mi Calm Calm - N/A   Clear
2:51 AM 68.0 °F - 66.0 °F 93% 30.22 in 9.0 mi Calm Calm - N/A   Clear
3:51 AM 66.9 °F - 64.9 °F 93% 30.22 in 5.0 mi Calm Calm - N/A   Clear
4:47 AM 66.2 °F - 64.4 °F 94% 30.25 in 8.0 mi Calm Calm - N/A   Scattered Clouds
4:51 AM 66.9 °F - 64.9 °F 93% 30.22 in 7.0 mi Calm Calm - N/A   Mostly Cloudy
5:25 AM 66.2 °F - 64.4 °F 94% 30.26 in 5.0 mi Calm Calm - N/A   Scattered Clouds
5:51 AM 66.9 °F - 64.9 °F 93% 30.21 in 7.0 mi Calm Calm - N/A   Scattered Clouds
6:02 AM 66.2 °F - 64.4 °F 94% 30.26 in 6.0 mi Calm Calm - N/A   Mostly Cloudy
6:51 AM 66.9 °F - 66.0 °F 97% 30.23 in 6.0 mi Calm Calm - N/A   Overcast
7:51 AM 70.0 °F - 66.9 °F 90% 30.24 in 9.0 mi Calm Calm - N/A   Overcast
8:42 AM 71.6 °F - 68.0 °F 88% 30.28 in 8.0 mi Calm Calm - N/A   Scattered Clouds
8:51 AM 71.1 °F - 68.0 °F 90% 30.25 in 10.0 mi Calm Calm - N/A   Scattered Clouds
9:51 AM 77.0 °F - 69.1 °F 76% 30.24 in 10.0 mi Calm Calm - N/A   Clear
10:51 AM 82.0 °F 85.5 °F 69.1 °F 65% 30.22 in 10.0 mi Calm Calm - N/A   Clear
11:51 AM 84.0 °F 88.4 °F 70.0 °F 63% 30.20 in 10.0 mi Calm Calm - N/A   Clear
12:51 PM 87.1 °F 90.6 °F 68.0 °F 53% 30.19 in 10.0 mi WNW 5.8 mph - N/A   Clear
1:51 PM 89.1 °F 93.7 °F 69.1 °F 52% 30.17 in 10.0 mi Variable 4.6 mph - N/A   Clear
2:51 PM 89.1 °F 92.9 °F 68.0 °F 50% 30.15 in 10.0 mi North 5.8 mph - N/A   Partly Cloudy
3:51 PM 89.1 °F 95.0 °F 71.1 °F 55% 30.13 in 10.0 mi NW 6.9 mph - N/A   Clear
4:51 PM 88.0 °F 93.8 °F 71.1 °F 57% 30.12 in 10.0 mi NW 8.1 mph - N/A   Clear
5:51 PM 79.0 °F - 64.9 °F 62% 30.14 in 10.0 mi SE 11.5 mph 21.9 mph N/A   Mostly Cloudy
6:51 PM 72.0 °F - 66.0 °F 81% 30.15 in 10.0 mi Variable 3.5 mph - 0.19 in Rain Light Rain
7:51 PM 71.1 °F - 66.0 °F 84% 30.15 in 10.0 mi East 3.5 mph - 0.01 in   Overcast
8:51 PM 70.0 °F - 66.9 °F 90% 30.15 in 10.0 mi Calm Calm - 0.00 in Rain Light Rain
9:51 PM 70.0 °F - 66.9 °F 90% 30.15 in 10.0 mi Calm Calm - 0.00 in   Partly Cloudy
10:51 PM 69.1 °F - 66.9 °F 93% 30.13 in 9.0 mi Calm Calm - N/A   Clear
11:51 PM 68.0 °F - 66.0 °F 93% 30.14 in 9.0 mi Calm Calm - N/A   Clear